This demonstration page uses our WeatherBlox Daily Observations layout. Learn more.

Left ArrowRight Arrow

39.92423, -83.80882

Hourly Observations for November 1, 2020

Temp ( °F °C ) Dew Point ( °F °C ) Humidity (%) Winds ( mph kmh ) Pressure ( in mb ) Visibility ( mi km ) Precip ( " mm )
12:56 am 00:56 Clear 47 8.3 38 3.3 71 71 S 8 13 30.06 1018 10 16 N/A
1:56 am 01:56 Clear 50 10 39 3.9 66 66 SSW 12 19 30.02 1017 10 16 N/A
1:56 am 01:56 Clear 51 10.6 40 4.4 66 66 SSW 9 15 30.00 1016 10 16 N/A
2:56 am 02:56 Cloudy 52 11.1 43 6.1 72 72 SSW 15 24 29.97 1015 10 16 N/A
3:56 am 03:56 Partly Cloudy 51 10.6 44 6.7 77 77 SW 14 22 29.93 1014 10 16 N/A
4:56 am 04:56 Mostly Clear 52 11.1 46 7.8 80 80 SW 17 28 29.90 1013 10 16 0.01 0.25
5:56 am 05:56 Cloudy 52 11.1 46 7.8 80 80 WSW 16 26 29.90 1013 10 16 0.00 0.00
6:56 am 06:56 Cloudy with Light Rain 52 11.1 45 7.2 77 77 WSW 20 31 29.90 1013 10 16 0.00 0.00
7:56 am 07:56 Cloudy 51 10.6 42 5.6 71 71 WSW 23 37 29.91 1013 10 16 0.00 0.00
8:56 am 08:56 Mostly Cloudy 48 8.9 34 1.1 58 58 WNW 23 37 29.96 1015 10 16 N/A
9:56 am 09:56 Mostly Cloudy 49 9.4 31 -0.6 50 50 W 25 41 29.97 1015 10 16 N/A
10:56 am 10:56 Mostly Cloudy 49 9.4 32 undefined 52 52 W 22 35 30.00 1016 10 16 N/A
11:56 am 11:56 Partly Cloudy 49 9.4 31 -0.6 50 50 W 24 39 30.03 1017 10 16 N/A
12:56 pm 12:56 Partly Cloudy 46 7.8 28 -2.2 50 50 WNW 23 37 30.06 1018 10 16 N/A
1:56 pm 13:56 Cloudy 42 5.6 26 -3.3 53 53 WNW 23 37 30.10 1019 10 16 N/A
2:56 pm 14:56 Cloudy 39 3.9 24 -4.4 55 55 WNW 20 31 30.14 1021 10 16 N/A
3:56 pm 15:56 Cloudy with Light Rain 38 3.3 24 -4.4 57 57 WNW 17 28 30.17 1022 10 16 0.00 0.00
4:56 pm 16:56 Windy with Snow Likely 35 1.7 26 -3.3 70 70 WNW 24 39 30.22 1023 9 14 0.00 0.00
5:56 pm 17:56 Cloudy 35 1.7 23 -5 61 61 NW 14 22 30.25 1024 10 16 0.00 0.00
6:56 pm 18:56 Cloudy 35 1.7 22 -5.6 59 59 WNW 21 33 30.28 1025 10 16 N/A
7:56 pm 19:56 Cloudy 35 1.7 22 -5.6 59 59 WNW 15 24 30.30 1026 10 16 N/A
8:56 pm 20:56 Partly Cloudy 34 1.1 22 -5.6 61 61 WNW 14 22 30.31 1027 10 16 N/A
9:56 pm 21:56 Partly Cloudy 33 0.6 22 -5.6 64 64 WNW 13 20 30.32 1027 10 16 N/A
10:56 pm 22:56 Mostly Clear 32 undefined 23 -5 69 69 W 9 15 30.32 1027 10 16 N/A
11:56 pm 23:56 Clear 31 -0.6 23 -5 72 72 W 12 19 30.32 1027 10 16 N/A

Powered by AerisWeather